Starlink 31700

operational
NORAD ID: 59436 Int'l Des: 2024-065 Owner: SPXS Country: US Constellation: starlink
LEOCIRCULAR

关于 Starlink 31700

正在加载描述...

实时位置

正在加载3D地球...

即将过境

高度历史

Altitude vs Time

uPlot chart will show altitude changes over time

两行轨道根数

1 59436U 24065R 25353.82086016 .00002387 00000-0 92750-4 0 9990
2 59436 53.1622 292.4812 0001283 101.0097 259.1048 15.30185063 96701
Epoch: Dec 19, 2025 • Age: 11 hours

当前状态

高度 476.1 km
速度 7.63 km/s
星下点 2.10°N, 102.54°E
发射日期 Apr 7, 2024
运行时间 1.7 years
类型 internet

技术详情

分类 Payload
质量 730.00 kg
干质量 700.00 kg
总质量 730.00 kg
长度 0.30 m
直径 4.10 m
跨度 29.00 m
形状 Box + pan
制造商 SPXS
平台类型 Starlink V2M
阶段状态 In Orbit
所有者/国家 SPXS/US

大型星座

Loading constellations...